Time,TemperatureF,DewpointF,PressureIn,WindDirection,WindDirectionDegrees,WindSpeedMPH,WindSpeedGustMPH,Humidity,HourlyPrecipIn,Conditions,Clouds,dailyrainin,SoftwareType,DateUTC
2013-06-05 00:02:00,63.3,35.7,30.11,NW,315,0.0,0.0,36,0.00,,,0.00,WUHU21623XXSP,2013-06-05 07:02:00,
2013-06-05 00:07:00,63.1,36.3,30.12,WNW,292,0.0,0.0,37,0.00,,,0.00,WUHU21623XXSP,2013-06-05 07:07:00,
2013-06-05 00:12:00,63.1,36.3,30.12,WNW,292,0.0,0.0,37,0.00,,,0.00,WUHU21623XXSP,2013-06-05 07:12:00,
2013-06-05 00:20:00,62.8,35.9,30.12,WSW,247,0.0,0.0,37,0.00,,,0.00,WUHU21623XXSP,2013-06-05 07:20:00,
2013-06-05 00:28:00,62.4,35.6,30.12,SW,225,0.0,0.0,37,0.00,,,0.00,WUHU21623XXSP,2013-06-05 07:28:00,
2013-06-05 00:35:00,62.1,35.3,30.12,NW,315,0.0,0.0,37,0.00,,,0.00,WUHU21623XXSP,2013-06-05 07:35:00,
2013-06-05 00:40:00,61.7,35.7,30.12,NNW,337,0.0,0.0,38,0.00,,,0.00,WUHU21623XXSP,2013-06-05 07:40:00,
2013-06-05 00:45:00,61.5,35.5,30.12,NNE,22,0.0,0.0,38,0.00,,,0.00,WUHU21623XXSP,2013-06-05 07:45:00,
2013-06-05 00:51:00,61.3,35.4,30.12,North,0,0.0,0.0,38,0.00,,,0.00,WUHU21623XXSP,2013-06-05 07:51:00,
2013-06-05 00:56:00,61.2,35.4,30.12,North,0,0.0,0.0,38,0.00,,,0.00,WUHU21623XXSP,2013-06-05 07:56:00,
2013-06-05 01:01:00,60.6,34.7,30.12,SE,135,0.0,0.0,38,0.00,,,0.00,WUHU21623XXSP,2013-06-05 08:01:00,
2013-06-05 01:06:00,60.4,35.3,30.13,SE,135,0.0,0.0,39,0.00,,,0.00,WUHU21623XXSP,2013-06-05 08:06:00,
2013-06-05 01:11:00,59.9,34.8,30.13,SE,135,0.0,0.0,39,0.00,,,0.00,WUHU21623XXSP,2013-06-05 08:11:00,
2013-06-05 01:18:00,59.5,34.5,30.13,SE,135,0.0,0.0,39,0.00,,,0.00,WUHU21623XXSP,2013-06-05 08:18:00,
2013-06-05 01:24:00,59.2,34.1,30.13,NW,315,0.0,0.0,39,0.00,,,0.00,WUHU21623XXSP,2013-06-05 08:24:00,
2013-06-05 01:29:00,59.0,34.7,30.12,NW,315,0.0,0.0,40,0.00,,,0.00,WUHU21623XXSP,2013-06-05 08:29:00,
2013-06-05 01:35:00,58.8,35.1,30.12,NNE,22,0.0,0.0,41,0.00,,,0.00,WUHU21623XXSP,2013-06-05 08:35:00,
2013-06-05 01:43:00,58.6,35.0,30.12,NNW,337,0.0,0.0,41,0.00,,,0.00,WUHU21623XXSP,2013-06-05 08:43:00,
2013-06-05 01:50:00,58.1,33.9,30.12,NNW,337,0.0,0.0,40,0.00,,,0.00,WUHU21623XXSP,2013-06-05 08:50:00,
2013-06-05 01:55:00,57.9,33.7,30.12,NNW,337,0.0,0.0,40,0.00,,,0.00,WUHU21623XXSP,2013-06-05 08:55:00,
2013-06-05 02:00:00,57.9,33.7,30.12,NNW,337,0.0,0.0,40,0.00,,,0.00,WUHU21623XXSP,2013-06-05 09:00:00,
2013-06-05 02:05:00,57.4,33.8,30.13,SSE,157,0.0,0.0,41,0.00,,,0.00,WUHU21623XXSP,2013-06-05 09:05:00,
2013-06-05 02:11:00,56.8,33.3,30.13,South,180,0.0,0.0,41,0.00,,,0.00,WUHU21623XXSP,2013-06-05 09:11:00,
2013-06-05 02:20:00,56.5,33.6,30.13,SSE,157,0.0,0.0,42,0.00,,,0.00,WUHU21623XXSP,2013-06-05 09:20:00,
2013-06-05 02:25:00,56.3,33.4,30.13,SSE,157,0.0,0.0,42,0.00,,,0.00,WUHU21623XXSP,2013-06-05 09:25:00,
2013-06-05 02:30:00,55.9,33.1,30.13,SSE,157,0.0,0.0,42,0.00,,,0.00,WUHU21623XXSP,2013-06-05 09:30:00,
2013-06-05 02:35:00,55.9,33.6,30.13,ENE,67,0.0,0.0,43,0.00,,,0.00,WUHU21623XXSP,2013-06-05 09:35:00,
2013-06-05 02:40:00,55.6,33.3,30.13,ENE,67,0.0,0.0,43,0.00,,,0.00,WUHU21623XXSP,2013-06-05 09:40:00,
2013-06-05 02:47:00,55.0,32.8,30.13,ENE,67,0.0,0.0,43,0.00,,,0.00,WUHU21623XXSP,2013-06-05 09:47:00,
2013-06-05 02:52:00,54.7,32.8,30.13,SE,135,0.0,0.0,43,0.00,,,0.00,WUHU21623XXSP,2013-06-05 09:52:00,
2013-06-05 02:57:00,54.7,32.5,30.13,SE,135,0.0,0.0,43,0.00,,,0.00,WUHU21623XXSP,2013-06-05 09:57:00,
2013-06-05 03:02:00,54.3,32.2,30.13,SE,135,0.0,0.0,43,0.00,,,0.00,WUHU21623XXSP,2013-06-05 10:02:00,
2013-06-05 03:07:00,54.0,32.0,30.14,East,90,0.0,0.0,43,0.00,,,0.00,WUHU21623XXSP,2013-06-05 10:07:00,
2013-06-05 03:13:00,53.8,31.7,30.13,ENE,67,0.0,0.0,43,0.00,,,0.00,WUHU21623XXSP,2013-06-05 10:13:00,
2013-06-05 03:18:00,53.6,31.7,30.13,NE,45,0.0,0.0,43,0.00,,,0.00,WUHU21623XXSP,2013-06-05 10:18:00,
2013-06-05 03:23:00,53.4,31.4,30.14,NE,45,0.0,0.0,43,0.00,,,0.00,WUHU21623XXSP,2013-06-05 10:23:00,
2013-06-05 03:32:00,53.2,31.2,30.14,SSW,202,0.0,0.0,43,0.00,,,0.00,WUHU21623XXSP,2013-06-05 10:32:00,
2013-06-05 03:39:00,52.9,30.9,30.14,SSW,202,0.0,0.0,43,0.00,,,0.00,WUHU21623XXSP,2013-06-05 10:39:00,
2013-06-05 03:49:00,52.3,30.4,30.14,NW,315,0.0,0.0,43,0.00,,,0.00,WUHU21623XXSP,2013-06-05 10:49:00,
2013-06-05 03:57:00,52.3,30.4,30.14,NW,315,0.0,0.0,43,0.00,,,0.00,WUHU21623XXSP,2013-06-05 10:57:00,
2013-06-05 04:02:00,52.0,30.1,30.14,NW,315,0.0,0.0,43,0.00,,,0.00,WUHU21623XXSP,2013-06-05 11:02:00,
2013-06-05 04:07:00,51.6,30.3,30.15,SSE,157,0.0,0.0,44,0.00,,,0.00,WUHU21623XXSP,2013-06-05 11:07:00,
2013-06-05 04:12:00,51.6,30.3,30.15,SSE,157,0.0,0.0,44,0.00,,,0.00,WUHU21623XXSP,2013-06-05 11:12:00,
2013-06-05 04:17:00,51.3,30.0,30.14,SSE,157,0.0,0.0,44,0.00,,,0.00,WUHU21623XXSP,2013-06-05 11:17:00,
2013-06-05 04:24:00,50.9,29.6,30.15,SSE,157,0.0,0.0,44,0.00,,,0.00,WUHU21623XXSP,2013-06-05 11:24:00,
2013-06-05 04:32:00,50.5,29.9,30.15,SSE,157,0.0,0.0,45,0.00,,,0.00,WUHU21623XXSP,2013-06-05 11:32:00,
2013-06-05 04:37:00,50.4,29.7,30.15,SSE,157,0.0,0.0,45,0.00,,,0.00,WUHU21623XXSP,2013-06-05 11:37:00,
2013-06-05 04:45:00,50.2,30.1,30.15,SSE,157,0.0,0.0,46,0.00,,,0.00,WUHU21623XXSP,2013-06-05 11:45:00,
2013-06-05 04:54:00,49.8,29.8,30.15,SSE,157,0.0,0.0,46,0.00,,,0.00,WUHU21623XXSP,2013-06-05 11:54:00,
2013-06-05 04:59:00,49.8,29.8,30.15,SSE,157,0.0,0.0,46,0.00,,,0.00,WUHU21623XXSP,2013-06-05 11:59:00,
2013-06-05 05:04:00,49.6,29.6,30.15,SSE,157,0.0,0.0,46,0.00,,,0.00,WUHU21623XXSP,2013-06-05 12:04:00,
2013-06-05 05:09:00,49.6,30.1,30.15,SSE,157,0.0,0.0,47,0.00,,,0.00,WUHU21623XXSP,2013-06-05 12:09:00,
2013-06-05 05:14:00,49.3,29.8,30.15,SSE,157,0.0,0.0,47,0.00,,,0.00,WUHU21623XXSP,2013-06-05 12:14:00,
2013-06-05 05:19:00,49.3,29.8,30.16,SSE,157,0.0,0.0,47,0.00,,,0.00,WUHU21623XXSP,2013-06-05 12:19:00,
2013-06-05 05:24:00,48.9,29.4,30.16,SSE,157,0.0,0.0,47,0.00,,,0.00,WUHU21623XXSP,2013-06-05 12:24:00,
2013-06-05 05:29:00,48.7,29.3,30.16,SSE,157,0.0,0.0,47,0.00,,,0.00,WUHU21623XXSP,2013-06-05 12:29:00,
2013-06-05 05:34:00,48.7,29.8,30.16,SSE,157,0.0,0.0,48,0.00,,,0.00,WUHU21623XXSP,2013-06-05 12:34:00,
2013-06-05 05:39:00,48.4,28.9,30.16,SSE,157,0.0,0.0,47,0.00,,,0.00,WUHU21623XXSP,2013-06-05 12:39:00,
2013-06-05 05:44:00,48.4,28.9,30.16,SSE,157,0.0,0.0,47,0.00,,,0.00,WUHU21623XXSP,2013-06-05 12:44:00,
2013-06-05 05:52:00,48.0,28.6,30.16,SSE,157,0.0,0.0,47,0.00,,,0.00,WUHU21623XXSP,2013-06-05 12:52:00,
2013-06-05 05:57:00,48.0,28.6,30.16,SSE,157,0.0,0.0,47,0.00,,,0.00,WUHU21623XXSP,2013-06-05 12:57:00,
2013-06-05 06:02:00,47.8,29.0,30.17,SSE,157,0.0,0.0,48,0.00,,,0.00,WUHU21623XXSP,2013-06-05 13:02:00,
2013-06-05 06:07:00,47.8,29.0,30.17,SSE,157,0.0,0.0,48,0.00,,,0.00,WUHU21623XXSP,2013-06-05 13:07:00,
2013-06-05 06:12:00,47.8,29.0,30.17,SSE,157,0.0,0.0,48,0.00,,,0.00,WUHU21623XXSP,2013-06-05 13:12:00,
2013-06-05 06:17:00,47.7,29.4,30.16,SSE,157,0.0,0.0,49,0.00,,,0.00,WUHU21623XXSP,2013-06-05 13:17:00,
2013-06-05 06:22:00,47.7,29.4,30.17,SSE,157,0.0,0.0,49,0.00,,,0.00,WUHU21623XXSP,2013-06-05 13:22:00,
2013-06-05 06:27:00,47.7,29.4,30.17,SSE,157,0.0,0.0,49,0.00,,,0.00,WUHU21623XXSP,2013-06-05 13:27:00,
2013-06-05 06:32:00,47.8,30.1,30.17,SSE,157,0.0,0.0,50,0.00,,,0.00,WUHU21623XXSP,2013-06-05 13:32:00,
2013-06-05 06:37:00,48.0,30.2,30.17,SSE,157,0.0,0.0,50,0.00,,,0.00,WUHU21623XXSP,2013-06-05 13:37:00,
2013-06-05 06:43:00,48.4,30.6,30.17,South,180,0.0,0.0,50,0.00,,,0.00,WUHU21623XXSP,2013-06-05 13:43:00,
2013-06-05 06:48:00,48.9,31.4,30.17,WNW,292,0.0,0.0,52,0.00,,,0.00,WUHU21623XXSP,2013-06-05 13:48:00,
2013-06-05 06:54:00,49.6,32.4,30.17,WNW,292,0.0,0.0,52,0.00,,,0.00,WUHU21623XXSP,2013-06-05 13:54:00,
2013-06-05 06:59:00,49.6,32.7,30.17,WNW,292,0.0,0.0,52,0.00,,,0.00,WUHU21623XXSP,2013-06-05 13:59:00,
2013-06-05 07:04:00,49.6,32.7,30.17,WNW,292,0.0,0.0,52,0.00,,,0.00,WUHU21623XXSP,2013-06-05 14:04:00,
2013-06-05 07:09:00,50.7,34.2,30.17,WNW,292,0.0,0.0,53,0.00,,,0.00,WUHU21623XXSP,2013-06-05 14:09:00,
2013-06-05 07:14:00,51.3,34.7,30.17,WNW,292,0.0,0.0,53,0.00,,,0.00,WUHU21623XXSP,2013-06-05 14:14:00,
2013-06-05 07:19:00,52.0,35.0,30.17,SSW,202,0.0,0.0,53,0.00,,,0.00,WUHU21623XXSP,2013-06-05 14:19:00,
2013-06-05 07:24:00,52.2,35.5,30.17,South,180,0.0,0.0,53,0.00,,,0.00,WUHU21623XXSP,2013-06-05 14:24:00,
2013-06-05 07:29:00,52.5,35.8,30.17,SW,225,0.0,0.0,53,0.00,,,0.00,WUHU21623XXSP,2013-06-05 14:29:00,
2013-06-05 07:34:00,53.2,36.5,30.18,WNW,292,0.0,0.0,53,0.00,,,0.00,WUHU21623XXSP,2013-06-05 14:34:00,
2013-06-05 07:39:00,53.8,36.6,30.18,WNW,292,0.0,0.0,53,0.00,,,0.00,WUHU21623XXSP,2013-06-05 14:39:00,
2013-06-05 07:47:00,54.5,37.2,30.17,WNW,292,0.0,0.0,52,0.00,,,0.00,WUHU21623XXSP,2013-06-05 14:47:00,
2013-06-05 07:56:00,55.2,37.3,30.17,WNW,292,0.0,0.0,51,0.00,,,0.00,WUHU21623XXSP,2013-06-05 14:56:00,
2013-06-05 08:01:00,55.8,37.7,30.18,WNW,292,0.0,0.0,51,0.00,,,0.00,WUHU21623XXSP,2013-06-05 15:01:00,
2013-06-05 08:06:00,56.3,38.4,30.18,WNW,292,0.0,0.0,51,0.00,,,0.00,WUHU21623XXSP,2013-06-05 15:06:00,
2013-06-05 08:15:00,57.0,38.7,30.17,WSW,247,0.0,0.0,50,0.00,,,0.00,WUHU21623XXSP,2013-06-05 15:15:00,
2013-06-05 08:20:00,57.2,38.7,30.17,West,270,0.0,0.0,50,0.00,,,0.00,WUHU21623XXSP,2013-06-05 15:20:00,
2013-06-05 08:26:00,57.9,39.5,30.17,SE,135,0.0,0.0,50,0.00,,,0.00,WUHU21623XXSP,2013-06-05 15:26:00,
2013-06-05 08:31:00,58.6,39.2,30.17,SE,135,0.0,0.0,49,0.00,,,0.00,WUHU21623XXSP,2013-06-05 15:31:00,
2013-06-05 08:36:00,59.2,40.0,30.18,ESE,112,0.0,0.0,49,0.00,,,0.00,WUHU21623XXSP,2013-06-05 15:36:00,
2013-06-05 08:47:00,60.4,40.6,30.18,SSW,202,0.0,0.0,48,0.00,,,0.00,WUHU21623XXSP,2013-06-05 15:47:00,
2013-06-05 08:52:00,61.0,40.8,30.18,SSW,202,0.0,0.0,47,0.00,,,0.00,WUHU21623XXSP,2013-06-05 15:52:00,
2013-06-05 08:57:00,61.5,40.7,30.18,ESE,112,0.0,0.0,47,0.00,,,0.00,WUHU21623XXSP,2013-06-05 15:57:00,
2013-06-05 09:02:00,62.2,41.1,30.18,ESE,112,0.0,0.0,46,0.00,,,0.00,WUHU21623XXSP,2013-06-05 16:02:00,
2013-06-05 09:07:00,62.4,41.2,30.18,South,180,0.0,0.0,46,0.00,,,0.00,WUHU21623XXSP,2013-06-05 16:07:00,
2013-06-05 09:12:00,63.1,41.9,30.17,SSW,202,0.0,0.0,45,0.00,,,0.00,WUHU21623XXSP,2013-06-05 16:12:00,
2013-06-05 09:19:00,64.0,42.1,30.17,SSE,157,0.0,0.0,45,0.00,,,0.00,WUHU21623XXSP,2013-06-05 16:19:00,
2013-06-05 09:26:00,64.6,42.0,30.17,WNW,292,0.0,0.0,44,0.00,,,0.00,WUHU21623XXSP,2013-06-05 16:26:00,
2013-06-05 09:32:00,65.1,42.5,30.17,SE,135,0.0,0.0,44,0.00,,,0.00,WUHU21623XXSP,2013-06-05 16:32:00,
2013-06-05 09:37:00,65.8,43.2,30.17,SSE,157,0.0,0.0,44,0.00,,,0.00,WUHU21623XXSP,2013-06-05 16:37:00,
2013-06-05 09:42:00,66.2,43.0,30.17,SSW,202,0.0,0.0,43,0.00,,,0.00,WUHU21623XXSP,2013-06-05 16:42:00,
2013-06-05 09:49:00,67.5,42.7,30.17,West,270,0.0,0.0,41,0.00,,,0.00,WUHU21623XXSP,2013-06-05 16:49:00,
2013-06-05 09:54:00,67.6,41.7,30.16,WNW,292,0.0,0.0,39,0.00,,,0.00,WUHU21623XXSP,2013-06-05 16:54:00,
2013-06-05 10:02:00,68.4,42.4,30.16,NNW,337,0.0,0.0,39,0.00,,,0.00,WUHU21623XXSP,2013-06-05 17:02:00,
2013-06-05 10:07:00,68.7,42.0,30.16,WNW,292,0.0,0.0,38,0.00,,,0.00,WUHU21623XXSP,2013-06-05 17:07:00,
2013-06-05 10:12:00,69.1,42.1,30.16,WNW,292,0.0,0.0,37,0.00,,,0.00,WUHU21623XXSP,2013-06-05 17:12:00,
2013-06-05 10:17:00,70.2,41.6,30.16,South,180,0.0,0.0,36,0.00,,,0.00,WUHU21623XXSP,2013-06-05 17:17:00,
2013-06-05 10:22:00,70.3,41.8,30.16,South,180,0.0,0.0,36,0.00,,,0.00,WUHU21623XXSP,2013-06-05 17:22:00,
2013-06-05 10:30:00,71.4,42.2,30.16,SSE,157,0.0,0.0,35,0.00,,,0.00,WUHU21623XXSP,2013-06-05 17:30:00,
2013-06-05 10:35:00,71.8,42.5,30.16,WNW,292,0.0,0.0,35,0.00,,,0.00,WUHU21623XXSP,2013-06-05 17:35:00,
2013-06-05 10:41:00,72.7,41.8,30.15,NW,315,0.0,0.0,33,0.00,,,0.00,WUHU21623XXSP,2013-06-05 17:41:00,
2013-06-05 10:46:00,73.2,41.9,30.15,NNE,22,0.0,0.0,34,0.00,,,0.00,WUHU21623XXSP,2013-06-05 17:46:00,
2013-06-05 10:51:00,73.8,42.5,30.16,NW,315,0.7,0.7,33,0.00,,,0.00,WUHU21623XXSP,2013-06-05 17:51:00,
2013-06-05 10:56:00,74.1,40.6,30.15,NW,315,0.7,0.7,30,0.00,,,0.00,WUHU21623XXSP,2013-06-05 17:56:00,
2013-06-05 11:01:00,74.5,41.8,30.15,WNW,292,0.0,0.7,31,0.00,,,0.00,WUHU21623XXSP,2013-06-05 18:01:00,
2013-06-05 11:08:00,75.4,42.6,30.15,SSE,157,3.1,3.1,31,0.00,,,0.00,WUHU21623XXSP,2013-06-05 18:08:00,
2013-06-05 11:13:00,75.6,42.8,30.15,West,270,0.0,3.1,30,0.00,,,0.00,WUHU21623XXSP,2013-06-05 18:13:00,
2013-06-05 11:18:00,75.9,42.4,30.16,WNW,292,0.0,0.0,30,0.00,,,0.00,WUHU21623XXSP,2013-06-05 18:18:00,
2013-06-05 11:23:00,76.8,40.9,30.15,WNW,292,0.0,0.0,27,0.00,,,0.00,WUHU21623XXSP,2013-06-05 18:23:00,
2013-06-05 11:32:00,77.5,40.6,30.15,SSW,202,0.0,0.0,28,0.00,,,0.00,WUHU21623XXSP,2013-06-05 18:32:00,
2013-06-05 11:37:00,78.1,42.1,30.15,SSW,202,0.0,0.0,28,0.00,,,0.00,WUHU21623XXSP,2013-06-05 18:37:00,
2013-06-05 11:43:00,79.0,41.6,30.14,West,270,0.0,0.0,26,0.00,,,0.00,WUHU21623XXSP,2013-06-05 18:43:00,
2013-06-05 11:48:00,79.2,39.9,30.15,West,270,0.0,0.0,25,0.00,,,0.00,WUHU21623XXSP,2013-06-05 18:48:00,
2013-06-05 11:55:00,80.2,39.8,30.15,NNW,337,0.0,0.7,24,0.00,,,0.00,WUHU21623XXSP,2013-06-05 18:55:00,
2013-06-05 12:00:00,80.6,39.1,30.15,SE,135,0.0,0.0,23,0.00,,,0.00,WUHU21623XXSP,2013-06-05 19:00:00,
2013-06-05 12:06:00,81.1,40.6,30.15,WNW,292,3.1,3.1,24,0.00,,,0.00,WUHU21623XXSP,2013-06-05 19:06:00,
2013-06-05 12:17:00,82.2,38.3,30.14,NW,315,1.1,1.1,21,0.00,,,0.00,WUHU21623XXSP,2013-06-05 19:17:00,
2013-06-05 12:22:00,82.6,37.5,30.14,NNW,337,4.7,4.7,20,0.00,,,0.00,WUHU21623XXSP,2013-06-05 19:22:00,
2013-06-05 12:34:00,84.0,36.8,30.14,NW,315,2.2,2.2,19,0.00,,,0.00,WUHU21623XXSP,2013-06-05 19:34:00,
2013-06-05 12:39:00,84.0,37.0,30.14,WNW,292,0.0,2.2,19,0.00,,,0.00,WUHU21623XXSP,2013-06-05 19:39:00,
2013-06-05 12:44:00,84.6,37.4,30.14,WSW,247,0.0,0.0,19,0.00,,,0.00,WUHU21623XXSP,2013-06-05 19:44:00,
2013-06-05 12:49:00,84.9,37.7,30.14,WSW,247,3.4,3.4,19,0.00,,,0.00,WUHU21623XXSP,2013-06-05 19:49:00,
2013-06-05 12:57:00,85.5,38.1,30.13,WNW,292,0.7,3.4,19,0.00,,,0.00,WUHU21623XXSP,2013-06-05 19:57:00,
2013-06-05 13:04:00,85.8,38.4,30.13,WSW,247,0.0,0.7,19,0.00,,,0.00,WUHU21623XXSP,2013-06-05 20:04:00,
2013-06-05 13:09:00,86.0,38.4,30.14,WNW,292,0.7,0.7,19,0.00,,,0.00,WUHU21623XXSP,2013-06-05 20:09:00,
2013-06-05 13:14:00,86.2,33.6,30.13,NW,315,0.0,0.7,16,0.00,,,0.00,WUHU21623XXSP,2013-06-05 20:14:00,
2013-06-05 13:19:00,86.7,34.1,30.13,NNW,337,7.4,7.4,16,0.00,,,0.00,WUHU21623XXSP,2013-06-05 20:19:00,
2013-06-05 13:27:00,87.3,34.5,30.13,WSW,247,0.0,7.4,16,0.00,,,0.00,WUHU21623XXSP,2013-06-05 20:27:00,
2013-06-05 13:32:00,87.6,38.1,30.12,NW,315,8.5,8.5,18,0.00,,,0.00,WUHU21623XXSP,2013-06-05 20:32:00,
2013-06-05 13:42:00,89.2,34.3,30.12,West,270,2.9,2.9,15,0.00,,,0.00,WUHU21623XXSP,2013-06-05 20:42:00,
2013-06-05 13:47:00,90.1,35.0,30.12,SE,135,0.0,2.9,15,0.00,,,0.00,WUHU21623XXSP,2013-06-05 20:47:00,
2013-06-05 13:53:00,91.0,34.0,30.12,West,270,0.0,0.0,14,0.00,,,0.00,WUHU21623XXSP,2013-06-05 20:53:00,
2013-06-05 13:59:00,91.0,32.3,30.11,West,270,4.0,4.0,13,0.00,,,0.00,WUHU21623XXSP,2013-06-05 20:59:00,
2013-06-05 14:04:00,91.0,34.0,30.11,West,270,0.0,4.0,14,0.00,,,0.00,WUHU21623XXSP,2013-06-05 21:04:00,
2013-06-05 14:09:00,90.9,33.9,30.11,WNW,292,6.5,6.5,13,0.00,,,0.00,WUHU21623XXSP,2013-06-05 21:09:00,
2013-06-05 14:14:00,91.0,32.3,30.11,WNW,292,0.7,6.5,13,0.00,,,0.00,WUHU21623XXSP,2013-06-05 21:14:00,
2013-06-05 14:19:00,91.0,32.3,30.11,WNW,292,4.0,4.0,13,0.00,,,0.00,WUHU21623XXSP,2013-06-05 21:19:00,
2013-06-05 14:25:00,91.0,32.4,30.11,WNW,292,3.6,4.0,13,0.00,,,0.00,WUHU21623XXSP,2013-06-05 21:25:00,
2013-06-05 14:34:00,91.2,32.4,30.10,North,0,0.0,3.6,13,0.00,,,0.00,WUHU21623XXSP,2013-06-05 21:34:00,
2013-06-05 14:39:00,91.2,34.2,30.10,NE,45,0.0,0.0,13,0.00,,,0.00,WUHU21623XXSP,2013-06-05 21:39:00,
2013-06-05 14:44:00,90.9,32.1,30.10,North,0,7.8,7.8,13,0.00,,,0.00,WUHU21623XXSP,2013-06-05 21:44:00,
2013-06-05 14:49:00,90.7,32.0,30.10,West,270,6.9,7.8,13,0.00,,,0.00,WUHU21623XXSP,2013-06-05 21:49:00,
2013-06-05 14:55:00,90.7,32.0,30.10,NW,315,3.8,6.9,13,0.00,,,0.00,WUHU21623XXSP,2013-06-05 21:55:00,
2013-06-05 15:02:00,90.5,31.8,30.10,WNW,292,0.0,3.8,13,0.00,,,0.00,WUHU21623XXSP,2013-06-05 22:02:00,
2013-06-05 15:07:00,90.7,33.7,30.10,WNW,292,0.0,0.0,14,0.00,,,0.00,WUHU21623XXSP,2013-06-05 22:07:00,
2013-06-05 15:12:00,90.7,32.0,30.10,WNW,292,0.0,0.0,13,0.00,,,0.00,WUHU21623XXSP,2013-06-05 22:12:00,
2013-06-05 15:17:00,91.0,32.3,30.09,WNW,292,3.1,3.1,13,0.00,,,0.00,WUHU21623XXSP,2013-06-05 22:17:00,
2013-06-05 15:22:00,91.2,32.4,30.09,WSW,247,2.5,3.1,14,0.00,,,0.00,WUHU21623XXSP,2013-06-05 22:22:00,
2013-06-05 15:27:00,91.2,34.2,30.09,West,270,1.6,2.5,14,0.00,,,0.00,WUHU21623XXSP,2013-06-05 22:27:00,
2013-06-05 15:34:00,91.2,32.4,30.09,NNW,337,0.9,1.6,13,0.00,,,0.00,WUHU21623XXSP,2013-06-05 22:34:00,
2013-06-05 15:39:00,91.2,32.4,30.09,WNW,292,12.3,12.3,13,0.00,,,0.00,WUHU21623XXSP,2013-06-05 22:39:00,
2013-06-05 15:44:00,91.4,32.6,30.09,WNW,292,6.0,12.3,13,0.00,,,0.00,WUHU21623XXSP,2013-06-05 22:44:00,
2013-06-05 15:49:00,91.6,32.7,30.09,NNW,337,3.1,6.0,13,0.00,,,0.00,WUHU21623XXSP,2013-06-05 22:49:00,
2013-06-05 15:54:00,91.6,34.4,30.09,NNW,337,0.0,3.1,14,0.00,,,0.00,WUHU21623XXSP,2013-06-05 22:54:00,
2013-06-05 15:59:00,91.8,32.7,30.09,West,270,0.0,0.0,14,0.00,,,0.00,WUHU21623XXSP,2013-06-05 22:59:00,
2013-06-05 16:08:00,91.8,34.6,30.08,WNW,292,0.0,0.0,14,0.00,,,0.00,WUHU21623XXSP,2013-06-05 23:08:00,
2013-06-05 16:13:00,91.9,32.9,30.09,NNW,337,2.2,2.2,13,0.00,,,0.00,WUHU21623XXSP,2013-06-05 23:13:00,
2013-06-05 16:18:00,91.9,32.9,30.09,NW,315,0.0,2.2,13,0.00,,,0.00,WUHU21623XXSP,2013-06-05 23:18:00,
2013-06-05 16:25:00,91.9,32.9,30.09,NNW,337,2.9,6.0,13,0.00,,,0.00,WUHU21623XXSP,2013-06-05 23:25:00,
2013-06-05 16:32:00,92.1,33.1,30.08,North,0,0.0,2.9,13,0.00,,,0.00,WUHU21623XXSP,2013-06-05 23:32:00,
2013-06-05 16:37:00,91.9,32.9,30.08,WNW,292,0.0,0.0,13,0.00,,,0.00,WUHU21623XXSP,2013-06-05 23:37:00,
2013-06-05 16:44:00,92.1,33.1,30.08,NNW,337,0.0,2.2,13,0.00,,,0.00,WUHU21623XXSP,2013-06-05 23:44:00,
2013-06-05 16:49:00,91.9,32.9,30.07,WNW,292,7.6,7.6,13,0.00,,,0.00,WUHU21623XXSP,2013-06-05 23:49:00,
2013-06-05 16:54:00,91.9,32.9,30.07,WNW,292,2.2,7.6,13,0.00,,,0.00,WUHU21623XXSP,2013-06-05 23:54:00,
2013-06-05 16:59:00,91.8,32.8,30.07,NW,315,0.9,2.2,13,0.00,,,0.00,WUHU21623XXSP,2013-06-05 23:59:00,
2013-06-05 17:04:00,91.4,32.6,30.08,SSE,157,0.0,0.9,14,0.00,,,0.00,WUHU21623XXSP,2013-06-06 00:04:00,
2013-06-05 17:10:00,90.3,33.6,30.08,WNW,292,0.0,0.0,14,0.00,,,0.00,WUHU21623XXSP,2013-06-06 00:10:00,
2013-06-05 17:15:00,90.1,33.3,30.07,WNW,292,0.0,0.0,14,0.00,,,0.00,WUHU21623XXSP,2013-06-06 00:15:00,
2013-06-05 17:21:00,89.4,32.7,30.08,NNW,337,4.9,4.9,14,0.00,,,0.00,WUHU21623XXSP,2013-06-06 00:21:00,
2013-06-05 17:26:00,89.2,32.6,30.07,WNW,292,0.0,4.9,14,0.00,,,0.00,WUHU21623XXSP,2013-06-06 00:26:00,
2013-06-05 17:31:00,88.9,32.3,30.07,NW,315,1.6,1.6,14,0.00,,,0.00,WUHU21623XXSP,2013-06-06 00:31:00,
2013-06-05 17:36:00,88.7,32.3,30.07,WNW,292,1.3,1.6,14,0.00,,,0.00,WUHU21623XXSP,2013-06-06 00:36:00,
2013-06-05 17:42:00,88.5,32.1,30.07,WNW,292,0.0,1.3,14,0.00,,,0.00,WUHU21623XXSP,2013-06-06 00:42:00,
2013-06-05 17:47:00,88.3,33.7,30.07,West,270,0.0,0.0,15,0.00,,,0.00,WUHU21623XXSP,2013-06-06 00:47:00,
2013-06-05 17:52:00,88.3,33.7,30.07,WNW,292,0.0,0.0,15,0.00,,,0.00,WUHU21623XXSP,2013-06-06 00:52:00,
2013-06-05 17:57:00,88.3,33.7,30.07,WNW,292,0.0,0.0,15,0.00,,,0.00,WUHU21623XXSP,2013-06-06 00:57:00,
2013-06-05 18:02:00,88.3,33.7,30.07,WNW,292,5.6,5.6,15,0.00,,,0.00,WUHU21623XXSP,2013-06-06 01:02:00,
2013-06-05 18:07:00,88.2,33.5,30.07,WNW,292,0.9,5.6,15,0.00,,,0.00,WUHU21623XXSP,2013-06-06 01:07:00,
2013-06-05 18:16:00,88.2,35.3,30.07,North,0,0.0,0.0,16,0.00,,,0.00,WUHU21623XXSP,2013-06-06 01:16:00,
2013-06-05 18:21:00,88.0,36.8,30.07,WNW,292,5.8,5.8,17,0.00,,,0.00,WUHU21623XXSP,2013-06-06 01:21:00,
2013-06-05 18:26:00,87.8,36.7,30.08,SSW,202,0.0,5.8,17,0.00,,,0.00,WUHU21623XXSP,2013-06-06 01:26:00,
2013-06-05 18:40:00,87.1,39.5,30.08,SSW,202,3.1,3.1,19,0.00,,,0.00,WUHU21623XXSP,2013-06-06 01:40:00,
2013-06-05 18:45:00,86.7,39.4,30.08,WNW,292,3.8,3.8,20,0.00,,,0.00,WUHU21623XXSP,2013-06-06 01:45:00,
2013-06-05 18:53:00,86.5,41.8,30.08,NW,315,0.0,3.8,21,0.00,,,0.00,WUHU21623XXSP,2013-06-06 01:53:00,
2013-06-05 19:10:00,85.5,43.1,30.08,SW,225,0.0,0.0,23,0.00,,,0.00,WUHU21623XXSP,2013-06-06 02:10:00,
2013-06-05 19:15:00,85.3,42.9,30.08,NW,315,0.0,0.0,23,0.00,,,0.00,WUHU21623XXSP,2013-06-06 02:15:00,
2013-06-05 19:20:00,84.9,42.6,30.08,West,270,0.0,0.0,23,0.00,,,0.00,WUHU21623XXSP,2013-06-06 02:20:00,
2013-06-05 19:25:00,84.7,42.5,30.08,NNW,337,0.0,0.0,23,0.00,,,0.00,WUHU21623XXSP,2013-06-06 02:25:00,
2013-06-05 19:30:00,84.4,44.3,30.08,West,270,0.0,0.0,25,0.00,,,0.00,WUHU21623XXSP,2013-06-06 02:30:00,
2013-06-05 19:35:00,84.0,44.0,30.08,West,270,0.0,0.0,25,0.00,,,0.00,WUHU21623XXSP,2013-06-06 02:35:00,
2013-06-05 19:40:00,84.0,44.0,30.08,WNW,292,0.0,0.0,25,0.00,,,0.00,WUHU21623XXSP,2013-06-06 02:40:00,
2013-06-05 19:45:00,83.5,43.8,30.08,NW,315,2.0,2.0,25,0.00,,,0.00,WUHU21623XXSP,2013-06-06 02:45:00,
2013-06-05 19:55:00,83.1,43.2,30.08,WNW,292,0.0,0.0,25,0.00,,,0.00,WUHU21623XXSP,2013-06-06 02:55:00,
2013-06-05 20:01:00,82.9,43.1,30.08,WNW,292,0.0,0.0,25,0.00,,,0.00,WUHU21623XXSP,2013-06-06 03:01:00,
2013-06-05 20:07:00,82.6,42.8,30.09,NW,315,0.0,0.0,25,0.00,,,0.00,WUHU21623XXSP,2013-06-06 03:07:00,
2013-06-05 20:12:00,82.4,42.6,30.09,NNW,337,0.0,0.0,25,0.00,,,0.00,WUHU21623XXSP,2013-06-06 03:12:00,
2013-06-05 20:17:00,82.2,41.4,30.09,NW,315,0.0,0.0,24,0.00,,,0.00,WUHU21623XXSP,2013-06-06 03:17:00,
2013-06-05 20:22:00,82.0,43.4,30.09,North,0,0.0,0.0,26,0.00,,,0.00,WUHU21623XXSP,2013-06-06 03:22:00,
2013-06-05 20:29:00,80.8,42.4,30.09,SE,135,0.0,0.0,26,0.00,,,0.00,WUHU21623XXSP,2013-06-06 03:29:00,
2013-06-05 20:34:00,80.4,42.1,30.09,ENE,67,0.0,0.0,26,0.00,,,0.00,WUHU21623XXSP,2013-06-06 03:34:00,
2013-06-05 20:48:00,79.9,41.6,30.09,NW,315,0.0,0.0,26,0.00,,,0.00,WUHU21623XXSP,2013-06-06 03:48:00,
2013-06-05 20:55:00,79.7,41.4,30.10,NW,315,0.0,0.0,26,0.00,,,0.00,WUHU21623XXSP,2013-06-06 03:55:00,
2013-06-05 21:01:00,79.5,41.3,30.09,NW,315,0.0,0.0,26,0.00,,,0.00,WUHU21623XXSP,2013-06-06 04:01:00,
2013-06-05 21:02:00,79.5,41.3,30.09,NW,315,0.0,0.0,26,0.00,,,0.00,WUHU21623XXSP,2013-06-06 04:02:00,
2013-06-05 21:03:00,79.5,41.3,30.09,NW,315,0.0,0.0,26,0.00,,,0.00,WUHU21623XXSP,2013-06-06 04:03:00,
2013-06-05 21:10:00,79.3,41.1,30.10,NW,315,0.0,0.0,26,0.00,,,0.00,WUHU21623XXSP,2013-06-06 04:10:00,
2013-06-05 21:22:00,78.4,41.4,30.10,East,90,0.0,0.0,27,0.00,,,0.00,WUHU21623XXSP,2013-06-06 04:22:00,
2013-06-05 21:27:00,78.1,41.1,30.11,SE,135,0.0,0.0,27,0.00,,,0.00,WUHU21623XXSP,2013-06-06 04:27:00,
2013-06-05 21:33:00,77.7,40.8,30.11,NE,45,0.0,0.0,27,0.00,,,0.00,WUHU21623XXSP,2013-06-06 04:33:00,
2013-06-05 21:38:00,77.2,40.4,30.10,NE,45,0.0,0.0,27,0.00,,,0.00,WUHU21623XXSP,2013-06-06 04:38:00,
2013-06-05 21:43:00,76.6,40.4,30.11,NE,45,0.0,0.0,27,0.00,,,0.00,WUHU21623XXSP,2013-06-06 04:43:00,
2013-06-05 21:48:00,76.3,39.6,30.10,NE,45,0.0,0.0,27,0.00,,,0.00,WUHU21623XXSP,2013-06-06 04:48:00,
2013-06-05 21:53:00,75.4,39.8,30.11,ENE,67,0.0,0.0,28,0.00,,,0.00,WUHU21623XXSP,2013-06-06 04:53:00,
2013-06-05 21:58:00,75.0,39.5,30.11,SE,135,0.0,0.0,28,0.00,,,0.00,WUHU21623XXSP,2013-06-06 04:58:00,
2013-06-05 22:03:00,74.5,39.0,30.11,SE,135,0.0,0.0,28,0.00,,,0.00,WUHU21623XXSP,2013-06-06 05:03:00,
2013-06-05 22:08:00,74.1,38.7,30.11,SSE,157,0.0,0.0,28,0.00,,,0.00,WUHU21623XXSP,2013-06-06 05:08:00,
2013-06-05 22:13:00,73.6,38.2,30.12,SSE,157,0.0,0.0,28,0.00,,,0.00,WUHU21623XXSP,2013-06-06 05:13:00,
2013-06-05 22:18:00,73.2,37.9,30.12,SSE,157,0.0,0.0,28,0.00,,,0.00,WUHU21623XXSP,2013-06-06 05:18:00,
2013-06-05 22:23:00,72.7,38.5,30.11,SSE,157,0.0,0.0,29,0.00,,,0.00,WUHU21623XXSP,2013-06-06 05:23:00,
2013-06-05 22:28:00,72.5,38.4,30.11,NE,45,0.0,0.0,29,0.00,,,0.00,WUHU21623XXSP,2013-06-06 05:28:00,
2013-06-05 22:39:00,71.4,38.5,30.12,SSE,157,0.0,0.0,30,0.00,,,0.00,WUHU21623XXSP,2013-06-06 05:39:00,
2013-06-05 22:44:00,70.7,38.0,30.12,SE,135,0.0,0.0,30,0.00,,,0.00,WUHU21623XXSP,2013-06-06 05:44:00,
2013-06-05 22:52:00,70.2,37.4,30.12,East,90,0.0,0.0,30,0.00,,,0.00,WUHU21623XXSP,2013-06-06 05:52:00,
2013-06-05 22:57:00,69.6,37.8,30.12,East,90,0.0,0.0,31,0.00,,,0.00,WUHU21623XXSP,2013-06-06 05:57:00,
2013-06-05 23:02:00,69.4,37.5,30.12,East,90,0.0,0.0,31,0.00,,,0.00,WUHU21623XXSP,2013-06-06 06:02:00,
2013-06-05 23:07:00,69.3,37.3,30.12,East,90,0.0,0.0,31,0.00,,,0.00,WUHU21623XXSP,2013-06-06 06:07:00,
2013-06-05 23:12:00,68.9,37.0,30.12,SE,135,0.0,0.0,31,0.00,,,0.00,WUHU21623XXSP,2013-06-06 06:12:00,
2013-06-05 23:17:00,68.5,36.6,30.12,WNW,292,0.0,0.0,31,0.00,,,0.00,WUHU21623XXSP,2013-06-06 06:17:00,
2013-06-05 23:24:00,67.8,37.1,30.12,WNW,292,0.0,0.0,32,0.00,,,0.00,WUHU21623XXSP,2013-06-06 06:24:00,
2013-06-05 23:31:00,67.6,36.6,30.12,WNW,292,0.0,0.0,32,0.00,,,0.00,WUHU21623XXSP,2013-06-06 06:31:00,
2013-06-05 23:36:00,67.5,36.4,30.12,WNW,292,0.0,0.0,32,0.00,,,0.00,WUHU21623XXSP,2013-06-06 06:36:00,
2013-06-05 23:41:00,67.1,36.2,30.12,WNW,292,0.0,0.0,32,0.00,,,0.00,WUHU21623XXSP,2013-06-06 06:41:00,
2013-06-05 23:46:00,66.6,36.4,30.12,WNW,292,0.0,0.0,33,0.00,,,0.00,WUHU21623XXSP,2013-06-06 06:46:00,
2013-06-05 23:52:00,66.0,36.0,30.12,WNW,292,0.0,0.0,33,0.00,,,0.00,WUHU21623XXSP,2013-06-06 06:52:00,
2013-06-05 23:57:00,65.5,35.5,30.12,SSE,157,0.0,0.0,33,0.00,,,0.00,WUHU21623XXSP,2013-06-06 06:57:00,